CW4279 Weather Reports


time (UTC)temp
F
wind
direction
speed
knots
gust
knots
rain 1hr
in
rain 24hr
in
rain mn
in
humidity
%
barometer
mb
20260502233621 64 245 0.9 2.6 0.00 0.00 0.00 37 1007.8
20260502233118 64 170 0.0 1.7 0.00 0.00 0.00 38 1008.0
20260502232614 64 226 2.6 2.6 0.00 0.00 0.00 37 1008.1
20260502232112 64 125 0.9 1.7 0.00 0.00 0.00 38 1008.2
20260502231608 64 257 0.9 1.7 0.00 0.00 0.00 38 1008.1
20260502231107 64 142 0.9 2.6 0.00 0.00 0.00 38 1008.4
20260502230604 64 90 0.9 1.7 0.00 0.00 0.00 37 1008.1
20260502225558 63 154 0.9 1.7 0.00 0.00 0.00 38 1008.1
20260502225055 64 147 0.9 1.7 0.00 0.00 0.00 37 1008.2
20260502224551 63 159 0.9 1.7 0.00 0.00 0.00 36 1008.1
20260502224048 63 130 0.9 2.6 0.00 0.00 0.00 36 1008.4
20260502223546 64 189 0.9 1.7 0.00 0.00 0.00 36 1008.2
20260502223044 64 128 0.0 4.3 0.00 0.00 0.00 36 1008.3
20260502222541 64 154 0.9 2.6 0.00 0.00 0.00 36 1008.4
20260502222037 63 143 0.9 1.7 0.00 0.00 0.00 36 1008.6
20260502221533 64 204 0.9 2.6 0.00 0.00 0.00 36 1008.6
20260502221031 64 137 0.0 2.6 0.00 0.00 0.00 36 1008.6
20260502220526 64 161 0.9 2.6 0.00 0.00 0.00 36 1008.7
20260502220024 64 318 2.6 2.6 0.00 0.00 0.00 35 1008.7
20260502215520 64 100 0.9 4.3 0.00 0.00 0.00 34 1008.9
20260502215017 64 283 1.7 2.6 0.00 0.00 0.00 35 1009.0
20260502214514 64 25 0.9 2.6 0.00 0.00 0.00 36 1008.9
20260502214012 64 197 0.9 2.6 0.00 0.00 0.00 34 1009.2
20260502213508 64 162 0.9 2.6 0.00 0.00 0.00 35 1009.1
20260502213007 64 114 1.7 4.3 0.00 0.00 0.00 34 1009.2
20260502212505 64 182 0.9 2.6 0.00 0.00 0.00 36 1009.3
20260502212002 64 102 0.9 2.6 0.00 0.00 0.00 35 1009.6
20260502211457 64 186 4.3 6.1 0.00 0.00 0.00 33 1009.4
20260502210955 66 202 3.5 5.2 0.00 0.00 0.00 32 1009.8
20260502210451 67 240 1.7 2.6 0.00 0.00 0.00 31 1009.8
20260502205949 68 214 4.3 5.2 0.00 0.00 0.00 31 1009.6
20260502205445 68 182 1.7 4.3 0.00 0.00 0.00 32 1009.8
20260502204942 67 149 0.0 2.6 0.00 0.00 0.00 33 1009.9
20260502204439 66 282 3.5 6.1 0.00 0.00 0.00 33 1009.9
20260502203937 64 153 1.7 5.2 0.00 0.00 0.00 32 1010.2
20260502203434 64 159 0.9 2.6 0.00 0.00 0.00 33 1010.4
20260502202930 63 141 0.0 4.3 0.00 0.00 0.00 36 1010.4
20260502202427 63 176 0.9 5.2 0.00 0.00 0.00 35 1010.5
20260502201925 64 144 0.0 4.3 0.00 0.00 0.00 34 1010.6
20260502201421 64 112 2.6 7.0 0.00 0.00 0.00 34 1010.9
20260502200918 63 277 2.6 2.6 0.00 0.00 0.00 34 1010.8
20260502200413 65 276 2.6 4.3 0.00 0.00 0.00 32 1011.0
20260502195912 66 157 0.9 5.2 0.00 0.00 0.00 32 1011.1
20260502195408 65 181 2.6 4.3 0.00 0.00 0.00 32 1011.0
20260502194905 65 119 2.6 6.1 0.00 0.00 0.00 31 1011.0
20260502194402 64 184 1.7 4.3 0.00 0.00 0.00 32 1011.0
20260502193857 64 127 0.0 4.3 0.00 0.00 0.00 33 1011.2
20260502193355 62 172 2.6 5.2 0.00 0.00 0.00 33 1011.2
20260502192850 63 158 2.6 2.6 0.00 0.00 0.00 32 1011.3
20260502192348 63 173 1.7 4.3 0.00 0.00 0.00 33 1011.6
20260502191844 63 166 1.7 5.2 0.00 0.00 0.00 32 1011.5
20260502191343 64 225 2.6 5.2 0.00 0.00 0.00 31 1011.9
20260502190839 64 162 1.7 6.1 0.00 0.00 0.00 32 1011.8
20260502190337 64 279 2.6 2.6 0.00 0.00 0.00 33 1012.1
20260502185832 62 182 2.6 6.1 0.00 0.00 0.00 32 1012.1
20260502185328 62 149 1.7 2.6 0.00 0.00 0.00 32 1012.1
20260502184825 61 126 1.7 4.3 0.00 0.00 0.00 34 1012.2
20260502184321 60 147 2.6 2.6 0.00 0.00 0.00 34 1012.3
20260502183818 63 134 3.5 5.2 0.00 0.00 0.00 32 1012.3
20260502183314 63 128 0.9 2.6 0.00 0.00 0.00 33 1012.5
20260502182809 64 337 4.3 5.2 0.00 0.00 0.00 32 1012.4
20260502182305 62 130 0.9 2.6 0.00 0.00 0.00 35 1012.4
20260502181802 62 140 0.9 2.6 0.00 0.00 0.00 33 1012.3
20260502181300 62 155 2.6 4.3 0.00 0.00 0.00 33 1012.6
20260502180758 62 201 0.0 4.3 0.00 0.00 0.00 33 1012.9
20260502180255 62 46 1.7 1.7 0.00 0.00 0.00 34 1013.0
20260502170214 61 211 2.6 5.2 0.00 0.00 0.00 33 1014.0
20260502164201 59 110 1.7 6.1 0.00 0.00 0.00 36 1014.2
20260502163656 59 178 1.7 4.3 0.00 0.00 0.00 33 1014.4
20260502163153 59 152 0.9 4.3 0.00 0.00 0.00 35 1014.3
20260502162650 59 167 2.6 4.3 0.00 0.00 0.00 33 1014.7
20260502162147 57 165 2.6 5.2 0.00 0.00 0.00 35 1014.5
20260502161644 59 36 1.7 5.2 0.00 0.00 0.00 33 1014.5
20260502161140 59 162 0.0 2.6 0.00 0.00 0.00 35 1014.6
20260502160639 58 199 2.6 4.3 0.00 0.00 0.00 36 1014.8
20260502160137 58 192 2.6 5.2 0.00 0.00 0.00 35 1014.8
20260502152051 55 128 1.7 2.6 0.00 0.00 0.00 36 1015.3
20260502151549 56 114 0.0 1.7 0.00 0.00 0.00 36 1015.2
20260502151046 56 153 0.9 2.6 0.00 0.00 0.00 37 1015.3
20260502150543 55 116 0.0 2.6 0.00 0.00 0.00 37 1015.2
20260502130428 40 145 0.9 0.9 0.00 0.00 0.00 72 1016.1
20260502123411 36 152 0.9 1.7 0.00 0.00 0.00 77 1015.9
20260502122908 35 144 0.0 0.9 0.00 0.00 0.00 84 1015.9
20260502122404 34 144 0.9 1.7 0.00 0.00 0.00 84 1016.0
20260502121902 32 154 0.9 1.7 0.00 0.00 0.00 90 1016.0
20260502121359 31 138 0.0 0.0 0.00 0.00 0.00 88 1015.8
20260502120857 32 138 0.0 0.9 0.00 0.00 0.00 88 1015.7
20260502120353 31 138 0.0 0.0 0.00 0.00 0.00 89 1015.9
20260502115850 30 138 0.0 0.0 0.00 0.00 0.00 89 1015.8
20260502115347 29 138 0.0 0.0 0.00 0.00 0.00 88 1015.9
20260502114843 29 139 0.0 0.0 0.00 0.00 0.00 88 1016.0
20260502114340 29 139 0.0 0.0 0.00 0.00 0.00 88 1015.9
20260502113837 29 139 0.0 0.0 0.00 0.00 0.00 87 1016.0
20260502113335 29 139 0.0 0.0 0.00 0.00 0.00 86 1015.9
20260502112833 29 139 0.0 0.0 0.00 0.00 0.00 86 1016.0
20260502112330 29 139 0.0 0.0 0.00 0.00 0.00 86 1015.8
20260502111828 29 140 0.0 0.0 0.00 0.00 0.00 86 1015.6
20260502111325 29 140 0.0 0.0 0.00 0.00 0.00 86 1015.7
20260502110823 29 140 0.0 0.0 0.00 0.00 0.00 85 1015.9
20260502110320 29 140 0.0 0.0 0.00 0.00 0.00 85 1015.7
20260502105818 29 140 0.0 0.0 0.00 0.00 0.00 86 1015.8
20260502105314 29 140 0.0 0.0 0.00 0.00 0.00 86 1015.8
20260502104812 29 140 0.0 0.0 0.00 0.00 0.00 85 1015.7
20260502104309 29 140 0.0 0.0 0.00 0.00 0.00 84 1015.8
20260502103806 30 140 0.0 0.0 0.00 0.00 0.00 82 1015.8
20260502103303 30 140 0.0 0.0 0.00 0.00 0.00 82 1015.8
20260502102801 30 140 0.0 0.9 0.00 0.00 0.00 81 1015.8
20260502102257 30 140 0.0 0.0 0.00 0.00 0.00 81 1015.8
20260502101755 30 140 0.0 0.0 0.00 0.00 0.00 82 1015.8
20260502101253 30 140 0.0 0.0 0.00 0.00 0.00 81 1015.7
20260502100751 31 140 0.0 0.9 0.00 0.00 0.00 79 1015.7
20260502100249 31 140 0.0 0.9 0.00 0.00 0.00 78 1015.6
20260502091224 32 139 0.0 0.0 0.00 0.00 0.00 76 1015.5
20260502090721 33 139 0.0 0.0 0.00 0.00 0.00 75 1015.4
20260502090217 34 139 0.0 0.0 0.00 0.00 0.00 73 1015.5
20260502071113 34 138 0.0 0.0 0.00 0.00 0.00 69 1015.8
20260502070611 35 138 0.0 0.0 0.00 0.00 0.00 68 1015.8
20260502070109 36 138 0.9 0.9 0.00 0.00 0.00 67 1015.8
20260502065607 37 138 0.0 0.0 0.00 0.00 0.00 63 1015.9
20260502065104 36 138 0.0 0.0 0.00 0.00 0.00 63 1015.7
20260502064603 36 138 0.0 0.0 0.00 0.00 0.00 64 1015.9
20260502064100 36 138 0.0 0.0 0.00 0.00 0.00 65 1016.0
20260502063557 35 138 0.0 0.0 0.00 0.00 0.00 66 1016.0
20260502063055 35 138 0.0 0.0 0.00 0.00 0.00 67 1015.8
20260502062552 34 138 0.0 0.0 0.00 0.00 0.00 69 1016.0
20260502062050 35 138 0.0 0.0 0.00 0.00 0.00 72 1016.2
20260502061547 35 138 0.0 0.0 0.00 0.00 0.00 69 1016.0
20260502061044 35 138 0.0 0.0 0.00 0.00 0.00 71 1015.9
20260502060539 35 138 0.0 0.0 0.00 0.00 0.00 68 1015.9
20260502060037 35 138 0.0 0.0 0.00 0.00 0.00 69 1016.1
20260502055534 35 138 0.0 0.0 0.00 0.00 0.00 71 1016.0
20260502055033 35 138 0.0 0.9 0.00 0.00 0.00 72 1015.9
20260502054531 36 138 0.0 0.0 0.00 0.00 0.00 68 1016.0
20260502054027 36 138 0.0 0.0 0.00 0.00 0.00 66 1016.0
20260502053524 36 138 0.0 0.0 0.00 0.00 0.00 66 1016.0
20260502053022 36 138 0.0 0.0 0.00 0.00 0.00 66 1016.0
20260502052520 36 138 0.0 0.0 0.00 0.00 0.00 67 1015.9
20260502052018 36 138 0.0 0.9 0.00 0.00 0.00 67 1016.0
20260502051516 36 138 0.0 0.0 0.00 0.00 0.00 70 1015.8
20260502051014 36 138 0.0 0.0 0.00 0.00 0.00 69 1016.0
20260502050509 35 138 0.0 0.0 0.00 0.00 0.00 70 1015.9
20260502050007 36 138 0.0 0.0 0.00 0.00 0.00 74 1015.9
20260502045503 36 138 0.0 0.0 0.00 0.00 0.00 74 1016.0
20260502045001 36 138 0.0 0.0 0.00 0.00 0.00 72 1016.0
20260502044456 36 138 0.0 0.0 0.00 0.00 0.00 70 1015.9
20260502043953 36 138 0.0 0.0 0.00 0.00 0.00 69 1016.0
20260502043451 37 138 0.0 0.0 0.00 0.00 0.00 64 1015.8
20260502042950 38 138 0.0 0.0 0.00 0.00 0.00 62 1016.0
20260502042447 39 138 0.0 0.0 0.00 0.00 0.00 60 1016.0
20260502041945 40 138 0.0 0.0 0.00 0.00 0.00 58 1016.0
20260502041443 40 138 0.0 0.9 0.00 0.00 0.00 58 1016.0
20260502040939 41 138 0.0 0.0 0.00 0.00 0.00 56 1016.0
20260502040436 41 138 0.0 0.0 0.00 0.00 0.00 55 1015.8
20260502035932 41 138 0.0 0.9 0.00 0.00 0.00 57 1015.7
20260502035428 41 138 0.0 0.9 0.00 0.00 0.00 56 1016.1
20260502034926 41 138 0.0 0.9 0.00 0.00 0.00 57 1016.1
20260502034425 41 138 0.0 0.9 0.00 0.00 0.00 57 1015.8
20260502033923 41 138 0.0 0.9 0.00 0.00 0.00 57 1016.0
20260502033420 41 138 0.0 0.9 0.00 0.00 0.00 57 1016.0
20260502032917 41 138 0.0 0.9 0.00 0.00 0.00 57 1015.8
20260502032413 41 138 0.0 0.0 0.00 0.00 0.00 59 1016.0
20260502031910 40 138 0.0 0.0 0.00 0.00 0.00 60 1016.0
20260502031409 40 138 0.0 0.0 0.00 0.00 0.00 62 1015.9
20260502030907 41 138 0.0 0.0 0.00 0.00 0.00 59 1016.2
20260502030405 42 138 0.0 0.0 0.00 0.00 0.00 57 1016.0
20260502025903 42 138 0.0 0.0 0.00 0.00 0.00 56 1015.9
20260502025359 42 138 0.0 0.0 0.00 0.00 0.00 56 1016.0
20260502024857 42 138 0.0 0.0 0.00 0.00 0.00 58 1016.2
20260502024354 43 138 0.0 0.0 0.00 0.00 0.00 54 1016.0
20260502023852 44 138 0.0 0.0 0.00 0.00 0.00 51 1015.7
20260502023350 44 138 0.0 0.0 0.00 0.00 0.00 52 1015.8
20260502022847 44 138 0.0 0.0 0.00 0.00 0.00 51 1015.8
20260502022343 44 138 0.0 0.0 0.00 0.00 0.00 50 1015.8
20260502021840 44 138 0.0 0.0 0.00 0.00 0.00 49 1015.6
20260502021338 45 138 0.0 0.0 0.00 0.00 0.00 48 1015.6
20260502020835 45 138 0.0 0.0 0.00 0.00 0.00 50 1015.8
20260502020333 46 138 0.0 0.0 0.00 0.00 0.00 49 1015.6
20260502015829 46 138 0.0 0.0 0.00 0.00 0.00 46 1015.6
20260502015327 46 138 0.0 0.0 0.00 0.00 0.00 46 1015.6
20260502014824 46 138 0.0 0.0 0.00 0.00 0.00 44 1015.6
20260502014321 47 138 0.0 0.0 0.00 0.00 0.00 43 1015.5
20260502013817 47 138 0.0 0.0 0.00 0.00 0.00 43 1015.4
20260502013313 48 138 0.0 0.0 0.00 0.00 0.00 42 1015.5
20260502012809 48 138 0.0 0.0 0.00 0.00 0.00 43 1015.4
20260502012307 47 138 0.0 0.0 0.00 0.00 0.00 44 1015.4
20260502011804 48 138 0.0 0.0 0.00 0.00 0.00 43 1015.4
20260502011300 48 138 0.0 0.0 0.00 0.00 0.00 43 1015.3
20260502010757 49 138 0.0 0.0 0.00 0.00 0.00 41 1015.3
20260502010254 49 138 0.0 0.0 0.00 0.00 0.00 41 1015.1
20260502005751 50 138 0.0 0.0 0.00 0.00 0.00 39 1015.3
20260502005249 50 138 0.0 0.0 0.00 0.00 0.00 40 1015.2
20260502004745 50 138 0.0 0.0 0.00 0.00 0.00 38 1015.2
20260502004242 51 138 0.0 0.0 0.00 0.00 0.00 39 1015.2
20260502003739 51 138 0.0 0.0 0.00 0.00 0.00 39 1015.4
20260502003237 51 147 0.9 0.9 0.00 0.00 0.00 37 1015.5
20260502002732 51 145 0.0 0.0 0.00 0.00 0.00 37 1015.3
20260502002230 51 135 0.0 0.9 0.00 0.00 0.00 37 1015.3
20260502001727 51 305 0.0 1.7 0.00 0.00 0.00 38 1015.5
20260502001225 51 96 0.9 1.7 0.00 0.00 0.00 35 1015.5
20260502000723 52 160 0.9 0.9 0.00 0.00 0.00 35 1015.2
20260502000220 52 161 0.9 0.9 0.00 0.00 0.00 36 1015.3
20260501235716 52 147 0.0 1.7 0.00 0.00 0.00 36 1015.3
20260501235212 52 289 1.7 1.7 0.00 0.00 0.00 36 1015.3
20260501234708 52 31 1.7 2.6 0.00 0.00 0.00 35 1015.2
20260501234205 52 128 0.9 0.9 0.00 0.00 0.00 36 1015.3